Météo par heure à Kistapolca

Ce jour, 6 Mars, Samedi

Heure Température Précipitation Vent Pression Humidité
00:00 +1°C° 0 mm 5 m/s 762 mmHg 58%
01:00 0°C° 0 mm 4 m/s 763 mmHg 61%
02:00 0°C° 0 mm 4 m/s 763 mmHg 64%
03:00 0°C° 0 mm 4 m/s 763 mmHg 66%
04:00 0°C° 0 mm 3 m/s 764 mmHg 69%
05:00 0°C° 0 mm 3 m/s 764 mmHg 72%
06:00 +1°C° 0 mm 2 m/s 765 mmHg 75%
07:00 -1°C° 0 mm 2 m/s 765 mmHg 77%
08:00 +1°C° 0 mm 2 m/s 765 mmHg 68%
09:00 +4°C° 0 mm 1 m/s 766 mmHg 58%
10:00 +5°C° 0 mm 1 m/s 766 mmHg 49%
11:00 +5°C° 0 mm 1 m/s 766 mmHg 45%
12:00 +6°C° 0 mm 1 m/s 766 mmHg 41%
13:00 +6°C° 0 mm 2 m/s 765 mmHg 37%
14:00 +7°C° 0 mm 1 m/s 765 mmHg 36%
15:00 +7°C° 0 mm 1 m/s 765 mmHg 35%
16:00 +7°C° 0 mm 1 m/s 765 mmHg 33%
17:00 +6°C° 0 mm 1 m/s 765 mmHg 38%
18:00 +5°C° 0 mm 1 m/s 765 mmHg 42%
19:00 +4°C° 0 mm 1 m/s 765 mmHg 46%
20:00 +4°C° 0 mm 1 m/s 765 mmHg 48%
21:00 +3°C° 0 mm 1 m/s 765 mmHg 50%
22:00 +2°C° 0 mm 0 m/s 765 mmHg 52%
23:00 +2°C° 0 mm 1 m/s 765 mmHg 54%

Demain, 7 Mars, Dimanche

Heure Température Précipitation Vent Pression Humidité
00:00 +2°C° 0 mm 1 m/s 765 mmHg 56%
01:00 +2°C° 0 mm 1 m/s 764 mmHg 58%
02:00 +1°C° 0 mm 1 m/s 764 mmHg 59%
03:00 +1°C° 0 mm 1 m/s 764 mmHg 60%
04:00 +1°C° 0 mm 1 m/s 763 mmHg 61%
05:00 +1°C° 0 mm 1 m/s 763 mmHg 61%
06:00 +1°C° 0 mm 1 m/s 763 mmHg 62%
07:00 +1°C° 0 mm 1 m/s 763 mmHg 62%
08:00 +3°C° 0 mm 1 m/s 762 mmHg 56%
09:00 +3°C° 0 mm 2 m/s 762 mmHg 50%
10:00 +5°C° 0 mm 2 m/s 761 mmHg 44%
11:00 +6°C° 0 mm 2 m/s 761 mmHg 41%
12:00 +7°C° 0 mm 2 m/s 760 mmHg 38%
13:00 +7°C° 0 mm 2 m/s 760 mmHg 36%
14:00 +8°C° 0 mm 2 m/s 759 mmHg 35%
15:00 +8°C° 0 mm 2 m/s 758 mmHg 35%
16:00 +9°C° 0 mm 1 m/s 757 mmHg 35%
17:00 +8°C° 0 mm 1 m/s 757 mmHg 39%
18:00 +6°C° 0 mm 1 m/s 757 mmHg 44%
19:00 +5°C° 0 mm 1 m/s 757 mmHg 49%
20:00 +5°C° 0 mm 1 m/s 756 mmHg 50%
21:00 +4°C° 0 mm 1 m/s 756 mmHg 52%
22:00 +4°C° 0 mm 1 m/s 756 mmHg 54%
23:00 +2°C° 0 mm 0 m/s 756 mmHg 55%

Après-demain, 8 Mars, Lundi

Heure Température Précipitation Vent Pression Humidité
00:00 +2°C° 0 mm 0 m/s 756 mmHg 56%
01:00 +2°C° 0 mm 0 m/s 756 mmHg 57%
02:00 +2°C° 0 mm 0 m/s 755 mmHg 57%
03:00 +1°C° 0 mm 0 m/s 755 mmHg 58%
04:00 +2°C° 0 mm 1 m/s 755 mmHg 59%
05:00 +2°C° 0 mm 1 m/s 755 mmHg 60%
06:00 +2°C° 0 mm 1 m/s 755 mmHg 60%
07:00 +3°C° 0 mm 1 m/s 755 mmHg 61%
08:00 +4°C° 0 mm 1 m/s 755 mmHg 56%
09:00 +6°C° 0 mm 1 m/s 755 mmHg 50%
10:00 +7°C° 0 mm 2 m/s 755 mmHg 45%
11:00 +8°C° 0 mm 2 m/s 755 mmHg 43%
12:00 +9°C° 0 mm 2 m/s 755 mmHg 40%
13:00 +10°C° 0 mm 2 m/s 755 mmHg 38%
14:00 +10°C° 0 mm 2 m/s 755 mmHg 38%
15:00 +10°C° 0 mm 2 m/s 754 mmHg 39%
16:00 +10°C° 0 mm 2 m/s 754 mmHg 40%
17:00 +9°C° 0 mm 2 m/s 754 mmHg 46%
18:00 +7°C° 0 mm 2 m/s 755 mmHg 51%
19:00 +5°C° 0 mm 3 m/s 755 mmHg 57%
20:00 +5°C° 0 mm 2 m/s 755 mmHg 59%
21:00 +5°C° 0 mm 2 m/s 756 mmHg 62%
22:00 +4°C° 0 mm 2 m/s 756 mmHg 64%
23:00 +3°C° 0 mm 2 m/s 756 mmHg 66%

9 Mars, Mardi

Heure Température Précipitation Vent Pression Humidité
00:00 +3°C° 0 mm 2 m/s 756 mmHg 68%
01:00 +4°C° 0 mm 1 m/s 756 mmHg 69%
02:00 +3°C° 0 mm 1 m/s 756 mmHg 71%
03:00 +3°C° 0 mm 1 m/s 756 mmHg 73%
04:00 +2°C° 0 mm 1 m/s 756 mmHg 74%
05:00 +2°C° 0 mm 1 m/s 756 mmHg 76%
06:00 +2°C° 0 mm 1 m/s 756 mmHg 77%
07:00 +2°C° 0 mm 1 m/s 756 mmHg 78%
08:00 +4°C° 0 mm 1 m/s 756 mmHg 72%
09:00 +5°C° 0 mm 1 m/s 756 mmHg 65%
10:00 +7°C° 0 mm 1 m/s 756 mmHg 59%
11:00 +7°C° 0 mm 2 m/s 756 mmHg 55%
12:00 +8°C° 0 mm 2 m/s 756 mmHg 51%
13:00 +9°C° 0 mm 2 m/s 756 mmHg 47%
14:00 +9°C° 0 mm 2 m/s 755 mmHg 47%
15:00 +9°C° 0 mm 3 m/s 755 mmHg 47%
16:00 +9°C° 0 mm 3 m/s 755 mmHg 47%
17:00 +8°C° 0 mm 3 m/s 755 mmHg 51%
18:00 +7°C° 0 mm 2 m/s 755 mmHg 55%
19:00 +6°C° 0 mm 2 m/s 756 mmHg 59%
20:00 +5°C° 0 mm 2 m/s 756 mmHg 61%
21:00 +5°C° 0 mm 2 m/s 756 mmHg 62%
22:00 +4°C° 0 mm 2 m/s 757 mmHg 63%
23:00 +5°C° 0 mm 1 m/s 757 mmHg 64%

10 Mars, Mercredi

Heure Température Précipitation Vent Pression Humidité
00:00 +5°C° 0 mm 1 m/s 757 mmHg 65%
01:00 +4°C° 0 mm 1 m/s 757 mmHg 66%
02:00 +4°C° 0 mm 1 m/s 757 mmHg 67%
03:00 +3°C° 0 mm 1 m/s 757 mmHg 68%
04:00 +2°C° 0 mm 0 m/s 757 mmHg 69%
05:00 +2°C° 0 mm 0 m/s 757 mmHg 69%
06:00 +3°C° 0 mm 1 m/s 758 mmHg 69%
07:00 +3°C° 0 mm 1 m/s 758 mmHg 69%
08:00 +5°C° 0 mm 1 m/s 758 mmHg 64%
09:00 +6°C° 0 mm 2 m/s 758 mmHg 59%
10:00 +8°C° 0 mm 2 m/s 759 mmHg 54%
11:00 +8°C° 0 mm 3 m/s 758 mmHg 53%
12:00 +9°C° 0 mm 3 m/s 758 mmHg 52%
13:00 +8°C° 0 mm 4 m/s 758 mmHg 51%
14:00 +9°C° 0 mm 3 m/s 758 mmHg 51%
15:00 +9°C° 0 mm 3 m/s 758 mmHg 51%
16:00 +9°C° 0 mm 3 m/s 757 mmHg 51%
17:00 +9°C° 0 mm 2 m/s 758 mmHg 54%
18:00 +9°C° 0 mm 1 m/s 758 mmHg 57%
19:00 +7°C° 0 mm 0 m/s 758 mmHg 61%
20:00 +7°C° 0 mm 1 m/s 758 mmHg 63%
21:00 +7°C° 0 mm 1 m/s 759 mmHg 65%
22:00 +6°C° 0 mm 1 m/s 759 mmHg 67%
23:00 +6°C° 0 mm 1 m/s 759 mmHg 69%

11 Mars, Jeudi

Heure Température Précipitation Vent Pression Humidité
00:00 +5°C° 0 mm 1 m/s 759 mmHg 71%
01:00 +4°C° 0 mm 2 m/s 759 mmHg 73%
02:00 +4°C° 0 mm 2 m/s 758 mmHg 74%
03:00 +3°C° 0 mm 2 m/s 758 mmHg 75%
04:00 +3°C° 0 mm 2 m/s 758 mmHg 77%
05:00 +3°C° 0 mm 2 m/s 758 mmHg 76%
06:00 +3°C° 0 mm 2 m/s 758 mmHg 76%
07:00 +3°C° 0 mm 2 m/s 758 mmHg 76%
08:00 +5°C° 0 mm 2 m/s 758 mmHg 68%
09:00 +8°C° 0 mm 3 m/s 758 mmHg 60%
10:00 +10°C° 0 mm 4 m/s 758 mmHg 52%
11:00 +11°C° 0 mm 3 m/s 758 mmHg 48%
12:00 +12°C° 0 mm 3 m/s 757 mmHg 45%
13:00 +12°C° 0 mm 3 m/s 757 mmHg 41%
14:00 +13°C° 0 mm 3 m/s 757 mmHg 41%
15:00 +13°C° 0 mm 3 m/s 756 mmHg 42%
16:00 +13°C° 0 mm 3 m/s 756 mmHg 42%
17:00 +12°C° 0 mm 3 m/s 756 mmHg 45%
18:00 +11°C° 0 mm 3 m/s 756 mmHg 48%
19:00 +10°C° 0 mm 3 m/s 756 mmHg 50%
20:00 +9°C° 0 mm 3 m/s 756 mmHg 52%
21:00 +9°C° 0 mm 3 m/s 756 mmHg 53%
22:00 +9°C° 0 mm 3 m/s 757 mmHg 55%
23:00 +9°C° 0 mm 3 m/s 757 mmHg 55%
Voir plus

Nous avons besoin de votre consentement

Meteoprog et ses fournisseurs de services peuvent stocker et accéder à des données personnelles telles que des cookies, des identifiants d'appareils ou d'autres technologies similaires sur votre appareil et traiter ces données pour personnaliser le contenu et les publicités, ainsi que pour fournir des fonctionnalités de médias sociaux et analyser le trafic.

  • Stocker et/ou accéder à des informations sur votre appareil

    Des cookies, des identifiants d'appareils ou d'autres informations peuvent être stockés ou accessibles sur votre appareil aux fins indiquées ci-dessus.

  • Annonces et contenus personnalisés, mesure des annonces et des contenus, connaissance de l'audience et développement de produits

    Les annonces et le contenu peuvent être personnalisés en fonction d'un profil. D'autres données peuvent être ajoutées pour mieux personnaliser les annonces et le contenu. Les performances des publicités et du contenu peuvent être mesurées. Il est possible d'obtenir des informations sur le public qui a vu les publicités et le contenu. Ces données peuvent être utilisées pour développer ou améliorer l'expérience de l'utilisateur, les systèmes et les logiciels.

En cliquant sur "J'accepte", vous autorisez l'utilisation de cookies, des identifiants d'appareils, des balises web ou d'autres technologies similaires. Vos paramètres peuvent être modifiés dans le navigateur de votre appareil.

Dans certains cas, des intérêts légitimes peuvent être invoqués plutôt qu'un consentement. Vous pouvez en savoir plus à ce sujet dans notre Politique de confidentialité et de cookies.